Regional Weather Roundup
Issued by NWS

Home | Current Version | Previous Version | Graphics & Text | Print | Product List | Glossary Off
Versions: 1 2 3 4 5 6 7 8 9 10 11 12 13 14 15 16 17 18 19 20 21 22 23 24 25 26 27 28 29 30 31 32 33 34 35 36 37 38 39 40 41 42 43 44 45 46 47 48 49 50

000
ASUS43 KLOT 201812
RWRIL

ILLINOIS REGIONAL WEATHER ROUNDUP
NATIONAL WEATHER SERVICE CHICAGO/ROMEOVILLE IL
1200 PM CST FRI JAN 20 2017

NOTE: "FAIR" INDICATES FEW OR NO CLOUDS BELOW 12,000 FEET WITH NO
SIGNIFICANT WEATHER AND/OR OBSTRUCTIONS TO VISIBILITY.

* THESE STATIONS ARE NOT UNDER NWS QUALITY CONTROL. THEY ALSO MAY NOT
  REPORT WEATHER SUCH AS PRECIPITATION OR FOG.

ILZ001-002-007-009-015-016-024-201900-
NORTHWEST ILLINOIS

CITY           SKY/WX    TMP DP  RH WIND       PRES   REMARKS
MOLINE         CLOUDY    43  39  86 SW5       29.61F
6HR MIN TEMP:  36; 6HR MAX TEMP:  42;

STERLING*      CLOUDY    41  40  96 CALM      29.63F
SAVANNA*       CLOUDY    40  39  97 S6        29.63F FOG
$$

ILZ003-004-008-010-011-017-018-201900-
NORTH CENTRAL ILLINOIS

CITY           SKY/WX    TMP DP  RH WIND       PRES   REMARKS
ROCKFORD       CLOUDY    41  38  89 SE7       29.65F FOG
6HR MIN TEMP:  38; 6HR MAX TEMP:  41; 6HR PCP: TRACE;

FREEPORT*      CLOUDY    38  38  99 SE5       29.65F FOG     WCI  35
ROCHELLE*      CLOUDY    40  40  99 S8        29.64F FOG
DE KALB*       CLOUDY    40  40  98 SE6       29.64S FOG
$$

ILZ005-006-012>014-019>023-201900-
NORTHEAST ILLINOIS

CITY           SKY/WX    TMP DP  RH WIND       PRES   REMARKS
CHICAGO-OHARE  CLOUDY    40  38  93 CALM      29.63F FOG
6HR MIN TEMP:  38; 6HR MAX TEMP:  40; 6HR PCP:  0.01;

CHICAGO-MIDWAY CLOUDY    40  38  93 CALM      29.65F FOG
6HR MIN TEMP:  37; 6HR MAX TEMP:  40; 6HR PCP:  0.01;

AURORA         CLOUDY    42  39  89 SE8       29.65  FOG
6HR MIN TEMP:  39; 6HR MAX TEMP:  42;

LANSING*       CLOUDY    40  40 100 SW5       29.66S FOG
JOLIET*        CLOUDY    43  42  97 CALM      29.65F FOG
WAUKEGAN       FOG       38  37  97 SE5       29.65R VSB 1   WCI  34
6HR MIN TEMP:  37; 6HR MAX TEMP:  38; 6HR PCP:  0.01;

DUPAGE AIRPORT CLOUDY    40  38  93 CALM      29.64S FOG
6HR MIN TEMP:  38; 6HR MAX TEMP:  41; 6HR PCP:  0.01;

KANKAKEE*      CLOUDY    43  42  97 CALM      29.66F
WHEELING       CLOUDY    39  38  96 NE3       29.65F FOG
6HR MIN TEMP:  38; 6HR MAX TEMP:  39; 6HR PCP: TRACE;

MORRIS*        CLOUDY    41  40  97 S5        29.64F FOG
ROMEOVILLE*    CLOUDY    40  40 100 S3        29.65R FOG
NORTHERLY ISL    N/A     37  36  96 E6          N/A  WCI  32
$$

LMZ740>746-201900-
SOUTHERN LAKE MICHIGAN

STATION/POSITION SKY/WX   TEMP    WIND        PRES    VSBY  WAVE
                          AIR SEA DIR/SP/G                  HT/PER
                          (F)     (DEG/KT/KT) (MB)    (MI)  (FT/S)
HARRISON CRIB              38     160/  4/  4   N/A
BURNHAM HARBOR             37      90/  2/  5   N/A
CALUMET HARBOR             37      60/  4/  5 1003.4F
BURNS HARBOR               40     220/  3/  9 1004.7F
MICHIGAN CITY              40     190/  6/  7   N/A
$$

ILZ025>027-034>036-040-047-049-050-058-095>099-201900-
WEST-CENTRAL ILLINOIS

CITY           SKY/WX    TMP DP  RH WIND       PRES   REMARKS
QUINCY         CLOUDY    46  45  96 SE7       29.59F
GALESBURG*     CLOUDY    42  42 100 CALM      29.60F
MACOMB*        CLOUDY    44  44 100 SE7       29.61F
JACKSONVILLE*  CLOUDY    47  46  97 SE6       29.60F FOG
PITTSFIELD*    CLOUDY    47  47  99 SE7       29.61F FOG
$$

ILZ028>032-037-038-041>044-048-051>054-059>061-201900-
CENTRAL ILLINOIS

CITY           SKY/WX    TMP DP  RH WIND       PRES   REMARKS
PONTIAC        CLOUDY    45  45 100 S3        29.64F
BLOOMINGTON    CLOUDY    45  45 100 S10       29.63F FOG
DECATUR        CLOUDY    48  33  56 S6        29.64F
PEORIA         CLOUDY    45  44  97 CALM      29.61F FOG
6HR MIN TEMP:  38; 6HR MAX TEMP:  45;

LACON*         CLOUDY    42  42 100 CALM      29.62F
LINCOLN*       CLOUDY    47  47  99 S7        29.63F
SPRINGFIELD    CLOUDY    48  47  96 S8        29.63F
6HR MIN TEMP:  44; 6HR MAX TEMP:  49;

TAYLORVILLE    CLOUDY    49  49 100 S6        29.64F FOG
6HR MIN TEMP:  44; 6HR MAX TEMP:  49;

$$

ILZ033-039-045-046-055>057-062-063-201900-
EAST-CENTRAL ILLINOIS

CITY           SKY/WX    TMP DP  RH WIND       PRES   REMARKS
CHAMPAIGN      CLOUDY    48  46  93 S6        29.65F FOG
RANTOUL*       CLOUDY    49  48  95 SW5       29.66F
MATTOON        CLOUDY    49  48  97 S10       29.66F
PARIS*         CLOUDY    50  49  98 S8        29.67F
$$

ILZ079-100>102-201900-
SOUTHWEST ILLINOIS

CITY           SKY/WX    TMP DP  RH WIND       PRES   REMARKS
ALTON          CLOUDY    50  48  93 S10       29.63F
BELLEVILLE     CLOUDY    52  52 100 E5        29.61F
CAHOKIA*       CLOUDY    53  47  79 S9        29.62F
SPARTA*        CLOUDY    53  49  86 S8        29.65F
$$

ILZ064>066-069>071-074>076-080>082-084>086-088>090-092>094-201900-
SOUTH-CENTRAL ILLINOIS

CITY           SKY/WX    TMP DP  RH WIND       PRES   REMARKS
CARBONDALE     CLOUDY    56  53  90 S9        29.65F
6HR MIN TEMP:  50; 6HR MAX TEMP:  56;

CAIRO*         CLOUDY    56  55  94 S8        29.67F
EFFINGHAM*     CLOUDY    52  51  95 S7        29.68F
MT. VERNON     CLOUDY    56  50  80 S13       29.67F
CENTRALIA*     CLOUDY    55  51  87 S10       29.65F
SALEM*         CLOUDY    55  49  81 S9G16     29.67F
METROPOLIS*    CLOUDY    58  55  88 CALM      29.69F
$$

ILZ067-068-072-073-078-083-087-091-201900-
SOUTHEAST ILLINOIS

CITY           SKY/WX    TMP DP  RH WIND       PRES   REMARKS
LAWRENCEVILLE  PTSUNNY   56  50  80 SW9       29.70F
FLORA*         PTSUNNY   56  50  81 S9        29.68F
FAIRFIELD*     CLOUDY    56  51  82 S8        29.68F
HARRISBURG*    CLOUDY    57  52  85 S12       29.69F
ROBINSON*      CLOUDY    52  47  84 SW14G20   29.71F
CARMI*         CLOUDY    58  52  80 SW8       29.69F
$$

ABBREVIATIONS USED IN REMARKS
   TC - TEMPERATURE IN CELSIUS
  WCI - WIND CHILL INDEX
   HX - HEAT INDEX
  VSB - VISIBILITY
$$




USA.gov is the U.S. government's official web portal to all federal, state and local government web resources and services.